TimeCST,TemperatureF,Dew PointF,Humidity,Sea Level PressureIn,VisibilityMPH,Wind Direction,Wind SpeedMPH,Gust SpeedMPH,PrecipitationIn,Events,Conditions,WindDirDegrees,DateUTC
12:15 AM,30.7,24.6,78,30.16,10.0,WNW,11.5,19.6,N/A,,Overcast,290,2013-01-03 06:15:00
12:35 AM,30.9,23.9,75,30.16,10.0,WNW,10.4,-,N/A,,Overcast,300,2013-01-03 06:35:00
12:55 AM,30.9,23.9,75,30.16,10.0,WNW,10.4,-,N/A,,Overcast,290,2013-01-03 06:55:00
1:15 AM,30.7,23.7,75,30.16,10.0,WNW,10.4,16.1,N/A,,Overcast,300,2013-01-03 07:15:00
1:35 AM,30.9,23.5,74,30.17,10.0,WNW,9.2,-,N/A,,Mostly Cloudy,290,2013-01-03 07:35:00
1:55 AM,30.7,23.7,75,30.17,10.0,WNW,8.1,-,N/A,,Mostly Cloudy,290,2013-01-03 07:55:00
2:15 AM,30.6,23.9,76,30.18,10.0,West,5.8,-,N/A,,Overcast,260,2013-01-03 08:15:00
2:35 AM,30.2,24.4,79,30.19,10.0,West,5.8,-,N/A,,Mostly Cloudy,270,2013-01-03 08:35:00
2:55 AM,30.2,24.4,79,30.19,10.0,West,5.8,-,N/A,,Overcast,270,2013-01-03 08:55:00
3:15 AM,30.2,24.6,80,30.19,10.0,West,4.6,-,N/A,,Mostly Cloudy,260,2013-01-03 09:15:00
3:35 AM,30.2,25.5,83,30.19,10.0,WSW,4.6,-,N/A,Snow,Light Snow,250,2013-01-03 09:35:00
3:55 AM,30.2,26.1,85,30.19,10.0,WSW,6.9,-,N/A,,Mostly Cloudy,250,2013-01-03 09:55:00
4:15 AM,30.2,26.4,86,30.19,10.0,WSW,6.9,-,N/A,,Mostly Cloudy,250,2013-01-03 10:15:00
4:35 AM,30.2,27.0,88,30.19,10.0,West,6.9,-,N/A,,Mostly Cloudy,260,2013-01-03 10:35:00
4:55 AM,30.7,27.1,86,30.20,10.0,West,9.2,-,N/A,,Mostly Cloudy,260,2013-01-03 10:55:00
5:15 AM,30.7,27.0,86,30.20,10.0,West,9.2,-,N/A,,Mostly Cloudy,270,2013-01-03 11:15:00
5:35 AM,31.1,26.8,84,30.20,10.0,West,10.4,-,N/A,,Overcast,280,2013-01-03 11:35:00
5:55 AM,31.1,27.0,85,30.22,10.0,West,9.2,-,N/A,,Overcast,280,2013-01-03 11:55:00
6:15 AM,31.5,26.6,82,30.22,10.0,West,10.4,16.1,N/A,,Overcast,280,2013-01-03 12:15:00
6:35 AM,31.5,26.6,82,30.23,10.0,WNW,11.5,-,N/A,,Overcast,290,2013-01-03 12:35:00
6:55 AM,29.8,24.8,81,30.24,10.0,NNW,11.5,17.3,N/A,,Overcast,330,2013-01-03 12:55:00
7:35 AM,24.6,19.8,82,30.26,10.0,NNW,17.3,-,N/A,,Overcast,340,2013-01-03 13:35:00
7:55 AM,23.5,18.3,80,30.28,10.0,NNW,15.0,19.6,N/A,,Overcast,340,2013-01-03 13:55:00
8:15 AM,23.4,18.3,81,30.28,10.0,NNW,13.8,-,N/A,,Overcast,330,2013-01-03 14:15:00
8:35 AM,23.0,18.3,82,30.29,10.0,NNW,12.7,-,N/A,,Overcast,330,2013-01-03 14:35:00
8:55 AM,22.8,17.4,80,30.30,10.0,NNW,13.8,-,N/A,,Overcast,330,2013-01-03 14:55:00
9:15 AM,21.9,16.2,78,30.31,10.0,NW,13.8,21.9,N/A,,Overcast,320,2013-01-03 15:15:00
9:35 AM,22.1,16.3,79,30.32,10.0,NW,15.0,-,N/A,,Overcast,310,2013-01-03 15:35:00
9:55 AM,21.9,15.4,76,30.33,10.0,NNW,15.0,-,N/A,,Overcast,330,2013-01-03 15:55:00
10:15 AM,19.2,10.4,69,30.34,10.0,NW,18.4,-,N/A,,Overcast,320,2013-01-03 16:15:00
10:35 AM,19.8,11.3,70,30.34,10.0,NW,17.3,-,N/A,,Mostly Cloudy,320,2013-01-03 16:35:00
10:55 AM,19.9,11.7,70,30.35,10.0,NW,12.7,18.4,N/A,,Scattered Clouds,320,2013-01-03 16:55:00
11:15 AM,20.7,12.0,69,30.34,10.0,WNW,11.5,18.4,N/A,,Clear,300,2013-01-03 17:15:00
11:35 AM,21.2,12.9,70,30.34,10.0,WNW,12.7,-,N/A,,Clear,300,2013-01-03 17:35:00
11:55 AM,21.0,13.1,71,30.33,10.0,NW,12.7,-,N/A,,Clear,310,2013-01-03 17:55:00
12:15 PM,21.6,13.6,72,30.33,10.0,NW,12.7,-,N/A,,Clear,310,2013-01-03 18:15:00
12:35 PM,21.2,11.8,67,30.33,10.0,NW,13.8,-,N/A,,Clear,310,2013-01-03 18:35:00
12:55 PM,20.8,10.9,66,30.33,10.0,WNW,15.0,18.4,N/A,,Clear,300,2013-01-03 18:55:00
1:15 PM,20.1,10.4,66,30.33,10.0,WNW,11.5,-,N/A,,Clear,300,2013-01-03 19:15:00
1:35 PM,20.8,10.2,64,30.33,10.0,NW,11.5,-,N/A,,Clear,310,2013-01-03 19:35:00
1:55 PM,20.8,10.4,64,30.33,10.0,WNW,12.7,-,N/A,,Clear,300,2013-01-03 19:55:00
2:15 PM,21.0,10.4,64,30.33,10.0,WNW,10.4,-,N/A,,Clear,290,2013-01-03 20:15:00
2:35 PM,21.0,10.4,64,30.34,10.0,West,12.7,-,N/A,,Clear,270,2013-01-03 20:35:00
2:55 PM,21.0,10.6,64,30.34,10.0,West,11.5,-,N/A,,Clear,270,2013-01-03 20:55:00
3:15 PM,21.0,10.8,65,30.35,10.0,West,10.4,-,N/A,,Clear,280,2013-01-03 21:15:00
3:35 PM,20.3,10.0,65,30.35,10.0,West,9.2,-,N/A,,Clear,280,2013-01-03 21:35:00
3:55 PM,20.1,10.4,66,30.36,10.0,West,10.4,-,N/A,,Clear,270,2013-01-03 21:55:00
4:15 PM,19.4,10.2,68,30.36,10.0,West,11.5,-,N/A,,Clear,270,2013-01-03 22:15:00
4:35 PM,18.5,9.9,69,30.36,10.0,West,9.2,16.1,N/A,,Clear,270,2013-01-03 22:35:00
4:55 PM,17.6,9.3,70,30.36,10.0,West,10.4,16.1,N/A,,Clear,280,2013-01-03 22:55:00
5:15 PM,16.7,9.1,72,30.38,10.0,West,8.1,-,N/A,,Clear,270,2013-01-03 23:15:00
5:35 PM,16.3,9.1,73,30.38,10.0,West,8.1,-,N/A,,Clear,280,2013-01-03 23:35:00
5:55 PM,16.0,8.6,73,30.38,10.0,West,5.8,-,N/A,,Clear,280,2013-01-03 23:55:00
6:15 PM,14.9,8.6,76,30.38,10.0,West,3.5,-,N/A,,Clear,260,2013-01-04 00:15:00
6:35 PM,14.9,8.6,76,30.38,10.0,West,5.8,-,N/A,,Clear,260,2013-01-04 00:35:00
6:55 PM,14.4,8.4,77,30.38,10.0,West,5.8,-,N/A,,Clear,280,2013-01-04 00:55:00
7:15 PM,14.0,8.2,78,30.38,10.0,West,5.8,-,N/A,,Clear,280,2013-01-04 01:15:00
7:35 PM,14.0,8.4,78,30.38,10.0,West,5.8,-,N/A,,Clear,270,2013-01-04 01:35:00
7:55 PM,13.8,8.4,79,30.38,10.0,West,5.8,-,N/A,,Clear,280,2013-01-04 01:55:00
8:15 PM,13.3,8.2,80,30.37,10.0,WNW,5.8,-,N/A,,Clear,290,2013-01-04 02:15:00
8:35 PM,13.6,8.6,80,30.37,10.0,West,8.1,-,N/A,,Clear,270,2013-01-04 02:35:00
8:55 PM,14.4,9.1,80,30.36,10.0,WSW,6.9,-,N/A,,Clear,250,2013-01-04 02:55:00
9:15 PM,13.8,8.6,80,30.35,10.0,West,4.6,-,N/A,,Clear,260,2013-01-04 03:15:00
9:35 PM,13.1,8.6,82,30.35,10.0,West,3.5,-,N/A,,Clear,270,2013-01-04 03:35:00
9:55 PM,12.9,8.6,83,30.35,10.0,West,5.8,-,N/A,,Clear,260,2013-01-04 03:55:00
10:15 PM,13.1,9.0,84,30.35,10.0,WSW,5.8,-,N/A,,Clear,250,2013-01-04 04:15:00
10:35 PM,12.9,8.6,83,30.35,10.0,SW,5.8,-,N/A,,Clear,230,2013-01-04 04:35:00
10:55 PM,13.3,9.3,84,30.34,10.0,WSW,6.9,-,N/A,,Clear,240,2013-01-04 04:55:00
11:15 PM,12.7,8.6,84,30.34,10.0,SW,5.8,-,N/A,,Clear,220,2013-01-04 05:15:00
11:35 PM,12.4,8.4,84,30.33,10.0,SW,6.9,-,N/A,,Clear,220,2013-01-04 05:35:00
11:55 PM,12.2,8.6,85,30.33,10.0,SW,5.8,-,N/A,,Clear,220,2013-01-04 05:55:00